Wind_Speed
32 32 30 29 28 27 26 25 23 23 22 22 22 22 21 21 21 20 20 20 19 19 19 19 19 19 19 19 18 18 19 20 20 20 20 20 20 21 20 20 21 21 21
33 32 32 31 30 29 28 27 26 25 24 24 23 23 23 22 22 22 22 22 22 21 21 21 21 21 21 21 20 20 20 20 21 21 21 21 22 22 22 22 22 22 22
33 33 32 32 31 31 30 29 28 27 26 26 26 26 25 24 24 23 23 23 24 24 23 23 23 23 22 22 22 21 21 22 22 23 23 23 23 24 24 25 24 24 24
34 34 33 32 32 32 32 31 30 29 28 28 28 28 27 25 25 25 25 25 25 26 26 25 25 25 24 24 24 24 24 24 24 24 25 25 25 25 26 26 26 26 26
35 35 34 34 34 34 33 32 31 31 30 30 30 29 29 28 28 27 27 27 27 27 27 27 26 27 27 26 25 26 27 26 26 26 26 26 26 27 27 27 28 28 28
36 36 35 35 35 35 34 33 33 32 32 31 31 31 31 30 30 30 29 29 29 29 29 29 28 29 29 29 29 29 28 28 28 28 28 29 29 29 29 30 30 31 31
37 37 36 35 36 36 36 35 35 34 33 33 33 32 33 33 32 32 31 31 31 31 31 30 30 30 30 30 30 30 30 30 31 31 31 31 31 32 32 32 33 34 34
38 38 38 36 37 37 37 36 35 34 34 34 35 35 35 34 33 34 33 33 33 33 32 32 32 32 32 32 32 32 32 33 33 33 34 34 34 34 35 35 36 36 37
39 39 39 38 38 38 37 37 36 35 36 36 36 36 35 35 34 34 34 34 34 34 34 34 33 34 34 34 33 34 34 35 36 36 36 37 36 37 37 38 39 39 40
39 39 39 38 37 38 38 38 37 37 37 37 36 37 36 35 35 35 35 34 34 35 35 35 35 35 36 36 35 36 36 37 38 39 39 39 39 40 41 41 42 42 42
40 38 39 39 38 38 38 38 37 38 38 38 37 37 37 36 36 35 34 34 35 36 37 36 37 37 37 37 38 38 39 40 40 40 41 42 42 43 44 44 44 45 45
39 38 39 39 39 39 39 38 38 38 38 39 38 38 37 36 36 36 36 35 36 37 37 37 37 37 38 39 40 40 41 42 42 43 43 44 45 46 46 47 46 47 48
38 38 38 39 39 40 39 39 39 38 39 39 38 39 38 37 37 37 37 37 37 38 38 38 39 39 40 41 42 42 43 44 44 45 46 46 47 48 49 49 49 49 50
38 38 37 38 39 39 39 40 39 38 38 39 39 40 40 38 37 37 38 38 38 39 40 40 39 40 41 42 43 44 45 46 46 47 48 49 49 50 51 52 52 51 52
39 39 38 38 38 38 38 39 39 39 39 39 40 41 41 40 38 38 38 39 39 40 40 41 41 42 43 43 44 45 46 46 47 48 49 50 51 52 53 53 53 54 54
38 38 38 39 39 39 39 39 40 41 41 40 40 41 41 42 40 39 40 40 41 42 42 43 43 44 45 46 46 47 48 49 49 50 51 52 53 54 54 55 55 55 56
37 38 38 39 39 39 39 40 40 41 42 42 42 42 43 43 42 42 42 42 43 44 44 45 45 46 48 48 48 49 50 50 52 53 53 54 55 55 56 56 56 57 57
39 39 39 39 39 39 40 40 40 41 43 44 44 45 45 44 44 44 43 43 44 45 46 47 47 47 49 50 51 51 51 52 54 55 55 56 57 57 57 58 58 58 57
40 40 40 40 41 41 41 42 42 43 43 45 45 46 45 45 45 44 45 45 45 46 47 47 48 49 49 50 51 52 53 54 55 55 55 56 57 58 58 58 58 58 57
41 41 41 40 42 43 43 43 44 44 44 45 45 45 45 46 46 45 45 45 46 46 47 48 49 50 50 50 51 52 53 54 55 55 56 56 57 57 58 57 57 56 56
42 42 43 42 42 43 44 44 45 45 45 46 46 46 46 46 46 46 46 46 46 47 48 49 50 50 51 51 52 53 53 54 55 56 56 56 57 57 56 56 55 54 54
43 43 43 43 44 44 45 45 45 46 46 45 46 46 47 47 47 47 47 47 48 49 49 50 51 51 52 53 53 54 55 55 56 55 56 56 56 55 55 55 54 54 54
44 45 44 44 44 45 46 46 45 45 46 47 46 46 46 47 48 47 48 49 49 50 50 51 52 52 52 53 55 55 55 56 55 56 56 54 54 54 54 53 54 53 54
45 45 46 46 46 46 47 46 46 46 46 46 47 47 47 48 49 49 48 49 49 50 51 52 52 53 53 54 55 55 55 55 55 54 55 53 52 53 53 54 54 54 54
45 45 45 45 45 45 45 46 46 46 47 47 48 48 48 48 49 49 49 50 50 51 52 53 53 53 54 55 56 56 56 56 54 53 53 53 52 53 53 52 53 54 54
45 44 44 44 44 45 45 45 46 46 46 47 47 48 48 49 49 49 50 51 51 52 53 53 54 54 55 55 56 56 56 55 54 52 52 53 53 53 52 51 52 52 53
Wind_Direction
237 237 238 239 240 241 243 243 242 244 246 245 243 244 246 246 247 251 254 256 259 262 263 265 269 271 273 276 279 281 282 283 285 285 284 286 288 290 292 293 293 293 293
237 237 238 238 239 241 243 244 244 244 245 245 244 245 247 248 249 252 255 257 260 262 265 267 269 270 272 274 276 278 281 283 284 284 285 285 287 288 289 292 295 293 292
238 238 239 238 238 239 241 243 244 245 245 246 246 247 248 251 251 253 256 259 261 262 263 266 268 269 271 273 274 276 280 282 283 284 285 286 286 287 288 289 293 293 292
238 239 239 239 239 240 241 242 244 245 246 247 248 248 249 251 253 254 257 260 261 261 263 266 268 268 271 273 273 274 278 280 282 284 287 286 286 287 287 289 290 291 291
239 240 240 240 241 241 242 243 244 244 244 246 247 248 250 251 253 255 257 260 261 261 263 265 268 268 269 271 274 275 276 279 281 283 285 286 285 285 287 288 289 289 290
239 240 240 240 241 242 242 243 244 244 244 246 247 249 251 252 254 256 258 260 261 262 263 265 266 268 270 270 272 275 277 278 279 281 283 285 285 285 286 287 288 288 288
240 239 239 240 241 242 242 243 244 245 246 246 248 250 252 252 254 256 258 260 262 263 263 264 265 268 271 271 273 275 276 277 278 279 281 284 285 285 286 287 288 287 287
240 240 239 240 241 241 242 243 244 246 247 247 248 251 253 253 255 257 258 260 262 263 264 265 265 267 270 272 274 275 276 276 277 279 281 284 284 285 286 287 288 287 287
240 240 240 240 242 242 242 242 243 245 248 247 248 251 254 256 257 258 259 260 262 264 264 264 265 267 270 273 274 276 276 277 278 279 281 283 284 284 285 286 287 287 286
240 241 239 241 241 241 242 243 244 246 249 249 250 251 254 256 258 258 260 262 265 266 265 265 266 269 270 273 275 277 278 280 280 281 281 282 283 284 286 287 287 287 286
240 241 241 241 241 241 242 243 245 247 250 250 251 252 254 256 258 261 262 264 266 267 267 267 267 269 270 273 275 277 279 281 281 281 281 281 283 284 286 286 286 286 286
242 243 241 241 241 241 242 244 246 248 250 250 252 253 255 258 259 261 262 264 266 267 268 268 269 270 271 273 275 277 278 280 280 280 281 282 283 285 286 287 286 286 287
242 243 241 241 241 242 243 244 246 248 250 251 252 254 256 260 261 263 264 265 267 267 269 269 270 271 273 274 276 277 278 280 280 280 281 282 284 285 285 285 285 286 286
243 242 241 241 241 242 243 245 246 248 250 252 253 256 258 261 262 264 266 267 268 269 270 270 271 272 275 276 277 278 279 279 280 280 281 282 283 284 285 285 285 286 286
244 242 242 244 243 243 244 244 246 247 251 251 254 256 258 260 263 265 266 267 270 271 270 271 272 272 275 277 278 278 279 280 281 282 282 283 284 285 285 286 286 286 286
243 243 244 245 245 245 246 246 246 247 249 250 253 256 258 260 263 264 266 268 270 271 272 272 273 274 275 277 278 278 279 280 282 283 284 285 285 286 286 286 286 286 286
243 244 244 245 246 246 246 247 248 249 251 252 254 256 259 261 263 264 266 268 270 272 273 274 276 277 278 278 279 279 279 281 282 283 284 286 286 286 286 286 286 286 286
244 245 244 246 247 248 248 249 251 253 254 254 255 258 260 262 263 264 266 269 271 272 273 275 276 278 279 280 280 280 281 282 283 284 284 285 284 285 286 286 286 286 285
245 245 246 247 249 250 251 252 253 255 256 257 258 259 261 262 263 265 268 270 271 272 274 275 277 278 280 281 281 282 283 284 285 285 285 286 285 286 286 285 285 285 284
246 246 247 249 250 250 252 254 254 255 257 258 259 260 261 262 263 265 267 269 271 273 275 276 278 280 281 282 283 283 284 285 286 287 287 287 287 287 286 286 286 286 285
247 248 249 250 252 253 253 254 256 257 258 259 258 259 261 262 263 264 266 269 271 274 276 278 279 281 282 283 284 284 285 286 287 288 288 288 289 288 287 287 287 287 286
247 248 249 251 253 254 254 255 258 259 258 259 260 260 261 263 264 266 267 270 272 275 277 279 281 282 283 284 283 285 286 286 287 287 288 289 288 287 287 287 287 287 287
248 248 249 251 253 254 254 255 256 257 258 258 259 261 262 264 266 267 269 271 274 276 278 280 281 282 283 284 284 285 286 288 289 289 289 289 288 287 287 287 287 287 287
250 251 251 252 252 252 253 253 255 256 258 259 260 262 264 265 267 268 271 273 275 277 278 280 282 283 283 283 284 286 287 288 289 289 289 289 288 288 288 289 288 288 287
251 252 252 252 253 253 254 255 256 257 259 260 261 262 264 266 268 269 272 274 276 277 279 280 282 283 284 284 285 286 288 288 289 289 288 289 289 289 289 289 288 288 288
253 253 253 252 253 254 255 256 257 258 259 261 263 264 265 266 268 269 272 274 276 278 280 281 282 284 284 285 285 287 287 288 289 289 288 289 290 290 289 289 289 288 288
Height
5817 5820 5822 5825 5827 5829 5831 5833 5834 5836 5837 5838 5840 5841 5842 5843 5844 5845 5846 5847 5847 5847 5848 5848 5848 5847 5847 5847 5847 5846 5846 5845 5844 5843 5842 5842 5841 5840 5839 5838 5837 5836 5834
5810 5813 5816 5819 5821 5823 5826 5828 5829 5831 5832 5834 5835 5836 5838 5839 5840 5841 5842 5842 5843 5843 5843 5843 5843 5843 5843 5843 5842 5842 5841 5841 5840 5839 5838 5837 5836 5836 5835 5833 5832 5831 5830
5804 5806 5809 5812 5815 5817 5819 5822 5823 5825 5827 5829 5830 5831 5833 5834 5835 5836 5837 5837 5838 5838 5838 5838 5838 5839 5838 5838 5838 5837 5837 5836 5835 5834 5834 5833 5832 5831 5830 5829 5827 5826 5825
5797 5799 5802 5805 5808 5810 5813 5815 5818 5819 5821 5823 5825 5826 5827 5829 5830 5830 5831 5832 5832 5833 5833 5833 5833 5833 5833 5833 5833 5832 5832 5831 5830 5829 5829 5828 5827 5826 5825 5823 5822 5821 5819
5790 5792 5795 5798 5801 5804 5806 5809 5811 5813 5815 5817 5819 5820 5822 5823 5824 5825 5826 5826 5826 5827 5827 5828 5828 5828 5828 5828 5827 5827 5826 5825 5825 5824 5823 5822 5821 5820 5819 5817 5816 5815 5813
5782 5785 5788 5791 5794 5796 5799 5802 5804 5807 5809 5811 5812 5814 5815 5817 5818 5819 5819 5820 5820 5821 5821 5822 5822 5822 5822 5822 5821 5821 5820 5819 5819 5818 5817 5816 5815 5814 5812 5811 5810 5808 5807
5774 5777 5780 5783 5786 5789 5792 5795 5797 5799 5802 5804 5806 5807 5808 5809 5811 5812 5813 5814 5814 5814 5815 5815 5815 5815 5815 5815 5815 5814 5814 5813 5812 5811 5810 5809 5808 5807 5805 5804 5802 5801 5799
5766 5769 5772 5775 5778 5781 5784 5787 5790 5792 5795 5797 5799 5800 5801 5802 5803 5805 5806 5807 5807 5807 5808 5808 5808 5808 5809 5808 5808 5807 5807 5806 5805 5804 5803 5802 5801 5799 5798 5796 5794 5793 5791
5758 5761 5764 5767 5770 5773 5776 5779 5782 5785 5787 5789 5791 5793 5794 5795 5797 5798 5798 5799 5800 5800 5800 5801 5801 5801 5801 5801 5800 5800 5799 5798 5797 5796 5795 5794 5792 5791 5789 5788 5786 5784 5782
5749 5752 5755 5758 5761 5765 5768 5771 5774 5777 5778 5780 5782 5785 5786 5788 5789 5790 5791 5792 5792 5792 5792 5793 5793 5793 5793 5793 5792 5792 5791 5790 5789 5788 5786 5785 5783 5782 5780 5778 5776 5774 5772
5741 5744 5747 5750 5753 5756 5760 5763 5766 5768 5770 5772 5774 5776 5778 5780 5781 5782 5783 5784 5784 5784 5784 5784 5784 5785 5785 5784 5784 5783 5782 5781 5779 5778 5776 5775 5773 5772 5770 5768 5765 5763 5761
5734 5736 5738 5742 5745 5748 5751 5754 5757 5760 5762 5764 5766 5768 5770 5771 5773 5774 5775 5775 5776 5776 5775 5775 5775 5776 5775 5775 5774 5773 5772 5771 5769 5768 5766 5764 5762 5761 5759 5756 5754 5752 5749
5726 5728 5731 5734 5736 5739 5742 5745 5748 5751 5753 5756 5758 5760 5762 5763 5764 5766 5766 5767 5767 5767 5766 5766 5766 5766 5766 5765 5764 5763 5762 5760 5758 5756 5755 5753 5751 5749 5746 5744 5742 5739 5737
5718 5720 5723 5726 5728 5731 5733 5736 5739 5742 5745 5748 5750 5752 5753 5755 5756 5757 5758 5758 5758 5759 5758 5758 5757 5756 5756 5755 5754 5752 5751 5749 5747 5745 5743 5741 5739 5737 5734 5732 5729 5726 5723
5710 5713 5715 5718 5721 5723 5725 5728 5731 5734 5737 5740 5742 5743 5745 5746 5747 5748 5748 5749 5749 5749 5749 5749 5748 5747 5746 5745 5743 5741 5739 5737 5735 5733 5731 5729 5727 5724 5721 5718 5715 5712 5709
5702 5705 5708 5711 5713 5716 5718 5721 5724 5726 5729 5731 5733 5735 5736 5738 5738 5738 5739 5739 5739 5738 5738 5738 5737 5736 5735 5733 5732 5730 5727 5725 5723 5720 5718 5715 5713 5710 5707 5704 5701 5698 5694
5695 5698 5700 5703 5706 5708 5711 5714 5716 5719 5720 5722 5724 5725 5726 5727 5728 5729 5729 5729 5728 5728 5727 5727 5726 5724 5722 5721 5719 5717 5714 5712 5710 5707 5704 5701 5698 5695 5692 5689 5685 5682 5678
5686 5689 5692 5695 5698 5700 5703 5705 5708 5710 5711 5713 5714 5715 5716 5717 5718 5718 5718 5718 5717 5717 5716 5715 5714 5712 5710 5708 5706 5704 5701 5698 5696 5693 5690 5686 5683 5679 5676 5672 5668 5665 5661
5678 5681 5684 5686 5689 5692 5694 5696 5698 5700 5701 5703 5704 5705 5705 5706 5706 5707 5707 5706 5706 5705 5704 5703 5702 5700 5698 5695 5693 5690 5688 5684 5681 5678 5675 5671 5667 5663 5659 5655 5652 5648 5645
5669 5672 5674 5677 5679 5682 5684 5686 5687 5689 5691 5692 5693 5694 5694 5695 5696 5696 5695 5695 5695 5694 5692 5691 5690 5688 5685 5682 5680 5677 5675 5671 5668 5664 5660 5656 5652 5648 5643 5639 5636 5632 5629
5659 5662 5664 5667 5669 5671 5673 5675 5676 5678 5679 5680 5681 5682 5683 5684 5684 5684 5684 5683 5683 5682 5681 5679 5677 5675 5672 5669 5667 5664 5661 5658 5654 5649 5646 5641 5637 5633 5628 5624 5620 5617 5614
5649 5652 5654 5656 5658 5660 5662 5663 5665 5667 5668 5669 5670 5671 5671 5672 5672 5672 5672 5671 5671 5670 5669 5667 5664 5662 5659 5656 5653 5650 5646 5644 5641 5637 5631 5627 5621 5617 5613 5610 5606 5602 5599
5638 5641 5643 5645 5647 5649 5650 5652 5653 5655 5656 5658 5658 5659 5660 5660 5660 5660 5660 5659 5658 5657 5655 5653 5651 5648 5645 5643 5639 5636 5632 5628 5624 5620 5615 5612 5607 5603 5599 5595 5591 5587 5583
5627 5629 5631 5633 5635 5637 5639 5640 5642 5643 5644 5646 5647 5648 5648 5648 5648 5648 5648 5647 5645 5644 5642 5640 5638 5635 5631 5628 5625 5622 5618 5614 5611 5605 5599 5597 5593 5589 5585 5580 5576 5572 5568
5615 5617 5619 5621 5623 5625 5627 5628 5630 5631 5632 5634 5635 5635 5636 5636 5636 5636 5635 5634 5633 5631 5628 5626 5623 5620 5617 5614 5610 5607 5603 5599 5596 5592 5586 5582 5579 5575 5571 5567 5561 5557 5553
5603 5605 5607 5609 5611 5613 5615 5617 5618 5619 5620 5621 5622 5623 5623 5624 5623 5622 5622 5621 5620 5618 5616 5613 5610 5607 5603 5600 5596 5592 5588 5584 5580 5578 5573 5568 5564 5560 5558 5554 5549 5543 5539